| time (UTC) | temp F | wind direction | speed MPH | gust MPH | rain 1hr in | rain 24hr in | rain mn in | humidity % | barometer mb |
| 20260504081915 | 42 | 182 | 5.0 | 7.0 | 0.00 | 0.00 | 0.00 | 65 | 1005.5 |
| 20260504081412 | 42 | 175 | 4.0 | 5.0 | 0.00 | 0.00 | 0.00 | 64 | 1005.6 |
| 20260504080908 | 42 | 168 | 3.0 | 5.0 | 0.00 | 0.00 | 0.00 | 63 | 1005.6 |
| 20260504080405 | 43 | 191 | 4.0 | 6.0 | 0.00 | 0.00 | 0.00 | 62 | 1005.5 |
| 20260504070333 | 47 | 226 | 4.0 | 6.0 | 0.00 | 0.00 | 0.00 | 59 | 1005.5 |
| 20260504060247 | 46 | 236 | 5.0 | 8.0 | 0.00 | 0.00 | 0.00 | 52 | 1005.7 |
| 20260504050715 | 47 | 226 | 5.0 | 7.0 | 0.00 | 0.00 | 0.00 | 46 | 1005.8 |
| 20260504050212 | 47 | 240 | 6.0 | 8.0 | 0.00 | 0.00 | 0.00 | 45 | 1006.0 |
| 20260504045709 | 47 | 264 | 5.0 | 7.0 | 0.00 | 0.00 | 0.00 | 45 | 1006.0 |
| 20260504045209 | 47 | 252 | 5.0 | 6.0 | 0.00 | 0.00 | 0.00 | 44 | 1005.9 |
| 20260504044708 | 47 | 252 | 5.0 | 6.0 | 0.00 | 0.00 | 0.00 | 44 | 1006.3 |
| 20260504044205 | 47 | 252 | 3.0 | 3.0 | 0.00 | 0.00 | 0.00 | 44 | 1006.3 |
| 20260504043701 | 47 | 257 | 11.0 | 13.0 | 0.00 | 0.00 | 0.00 | 43 | 1006.5 |
| 20260504043158 | 48 | 249 | 3.0 | 5.0 | 0.00 | 0.00 | 0.00 | 43 | 1006.5 |
| 20260504042656 | 48 | 281 | 5.0 | 7.0 | 0.00 | 0.00 | 0.00 | 42 | 1006.5 |
| 20260504042152 | 48 | 229 | 4.0 | 5.0 | 0.00 | 0.00 | 0.00 | 42 | 1006.4 |
| 20260504041648 | 48 | 217 | 5.0 | 6.0 | 0.00 | 0.00 | 0.00 | 42 | 1006.4 |
| 20260504041144 | 48 | 258 | 5.0 | 7.0 | 0.00 | 0.00 | 0.00 | 42 | 1006.4 |
| 20260504040642 | 48 | 262 | 5.0 | 7.0 | 0.00 | 0.00 | 0.00 | 41 | 1006.3 |
| 20260504040138 | 48 | 226 | 3.0 | 5.0 | 0.00 | 0.00 | 0.00 | 41 | 1006.5 |
| 20260504035635 | 48 | 265 | 5.0 | 7.0 | 0.00 | 0.00 | 0.00 | 41 | 1006.4 |
| 20260504035132 | 48 | 220 | 3.0 | 3.0 | 0.00 | 0.00 | 0.00 | 43 | 1006.4 |
| 20260504034630 | 47 | 255 | 5.0 | 7.0 | 0.00 | 0.00 | 0.00 | 43 | 1006.4 |
| 20260504034126 | 47 | 210 | 4.0 | 6.0 | 0.00 | 0.00 | 0.00 | 43 | 1006.6 |
| 20260504033624 | 47 | 187 | 3.0 | 3.0 | 0.00 | 0.00 | 0.00 | 44 | 1006.6 |
| 20260504033121 | 47 | 221 | 3.0 | 3.0 | 0.00 | 0.00 | 0.00 | 44 | 1006.5 |
| 20260504032618 | 47 | 237 | 6.0 | 9.0 | 0.00 | 0.00 | 0.00 | 43 | 1006.7 |
| 20260504032115 | 48 | 258 | 3.0 | 5.0 | 0.00 | 0.00 | 0.00 | 43 | 1006.7 |
| 20260504031612 | 48 | 235 | 4.0 | 5.0 | 0.00 | 0.00 | 0.00 | 43 | 1006.6 |
| 20260504031108 | 48 | 252 | 4.0 | 5.0 | 0.00 | 0.00 | 0.00 | 43 | 1006.7 |
| 20260504030605 | 48 | 241 | 3.0 | 5.0 | 0.00 | 0.00 | 0.00 | 43 | 1006.8 |
| 20260504025559 | 48 | 238 | 10.0 | 13.0 | 0.00 | 0.00 | 0.00 | 42 | 1006.7 |
| 20260504025055 | 48 | 213 | 2.0 | 2.0 | 0.00 | 0.00 | 0.00 | 42 | 1006.8 |
| 20260504024553 | 48 | 252 | 6.0 | 7.0 | 0.00 | 0.00 | 0.00 | 42 | 1006.8 |
| 20260504024049 | 48 | 250 | 4.0 | 6.0 | 0.00 | 0.00 | 0.00 | 42 | 1006.8 |
| 20260504023546 | 49 | 256 | 5.0 | 6.0 | 0.00 | 0.00 | 0.00 | 42 | 1007.0 |
| 20260504023042 | 49 | 249 | 3.0 | 3.0 | 0.00 | 0.00 | 0.00 | 41 | 1007.2 |
| 20260504022538 | 49 | 279 | 4.0 | 5.0 | 0.00 | 0.00 | 0.00 | 42 | 1006.8 |
| 20260504022035 | 49 | 229 | 8.0 | 9.0 | 0.00 | 0.00 | 0.00 | 41 | 1006.9 |
| 20260504021532 | 49 | 265 | 7.0 | 8.0 | 0.00 | 0.00 | 0.00 | 41 | 1006.8 |
| 20260504021029 | 49 | 217 | 4.0 | 5.0 | 0.00 | 0.00 | 0.00 | 41 | 1006.9 |
| 20260504020526 | 50 | 287 | 4.0 | 5.0 | 0.00 | 0.00 | 0.00 | 41 | 1007.2 |
| 20260504020022 | 50 | 246 | 6.0 | 8.0 | 0.00 | 0.00 | 0.00 | 40 | 1006.9 |
| 20260504015518 | 50 | 287 | 6.0 | 7.0 | 0.00 | 0.00 | 0.00 | 41 | 1007.0 |
| 20260504015015 | 49 | 228 | 3.0 | 5.0 | 0.00 | 0.00 | 0.00 | 41 | 1007.2 |
| 20260504014511 | 50 | 241 | 3.0 | 3.0 | 0.00 | 0.00 | 0.00 | 41 | 1007.0 |
| 20260504014008 | 49 | 248 | 3.0 | 5.0 | 0.00 | 0.00 | 0.00 | 40 | 1007.0 |
| 20260504013506 | 50 | 207 | 4.0 | 5.0 | 0.00 | 0.00 | 0.00 | 40 | 1007.1 |
| 20260504013002 | 49 | 276 | 4.0 | 6.0 | 0.00 | 0.00 | 0.00 | 40 | 1007.1 |
| 20260504012500 | 49 | 237 | 3.0 | 5.0 | 0.00 | 0.00 | 0.00 | 41 | 1007.2 |
| 20260504011958 | 49 | 207 | 2.0 | 2.0 | 0.00 | 0.00 | 0.00 | 41 | 1007.1 |
| 20260504011454 | 49 | 215 | 2.0 | 2.0 | 0.00 | 0.00 | 0.00 | 40 | 1007.0 |
| 20260504010950 | 48 | 269 | 3.0 | 5.0 | 0.00 | 0.00 | 0.00 | 42 | 1007.2 |
| 20260504010446 | 48 | 256 | 2.0 | 2.0 | 0.00 | 0.00 | 0.00 | 43 | 1007.1 |
| 20260504005942 | 48 | 191 | 0.0 | 1.0 | 0.00 | 0.00 | 0.00 | 45 | 1007.0 |
| 20260504005439 | 48 | 263 | 4.0 | 6.0 | 0.00 | 0.00 | 0.00 | 43 | 1006.9 |
| 20260504004937 | 48 | 178 | 0.0 | 1.0 | 0.00 | 0.00 | 0.00 | 45 | 1006.8 |
| 20260504004434 | 48 | 178 | 0.0 | 0.0 | 0.00 | 0.00 | 0.00 | 42 | 1006.8 |
| 20260504003931 | 48 | 177 | 0.0 | 2.0 | 0.00 | 0.00 | 0.00 | 42 | 1006.9 |
| 20260504003427 | 49 | 177 | 1.0 | 1.0 | 0.00 | 0.00 | 0.00 | 42 | 1006.8 |
| 20260504002924 | 49 | 178 | 1.0 | 2.0 | 0.00 | 0.00 | 0.00 | 41 | 1006.7 |
| 20260504002421 | 49 | 180 | 0.0 | 1.0 | 0.00 | 0.00 | 0.00 | 40 | 1006.6 |
| 20260504001918 | 50 | 210 | 1.0 | 1.0 | 0.00 | 0.00 | 0.00 | 39 | 1006.6 |
| 20260504001416 | 50 | 223 | 2.0 | 2.0 | 0.00 | 0.00 | 0.00 | 39 | 1006.6 |
| 20260504000912 | 49 | 177 | 1.0 | 1.0 | 0.00 | 0.00 | 0.00 | 38 | 1006.5 |
| 20260504000409 | 49 | 163 | 1.0 | 1.0 | 0.00 | 0.00 | 0.00 | 39 | 1006.5 |
| 20260503235907 | 50 | 164 | 1.0 | 1.0 | 0.00 | 0.00 | 0.00 | 39 | 1006.6 |
| 20260503235405 | 50 | 192 | 1.0 | 1.0 | 0.00 | 0.00 | 0.00 | 39 | 1006.4 |
| 20260503234902 | 51 | 271 | 1.0 | 3.0 | 0.00 | 0.00 | 0.00 | 40 | 1006.4 |
| 20260503234359 | 51 | 169 | 0.0 | 0.0 | 0.00 | 0.00 | 0.00 | 38 | 1006.4 |
| 20260503233857 | 51 | 164 | 0.0 | 0.0 | 0.00 | 0.00 | 0.00 | 39 | 1006.4 |
| 20260503233353 | 51 | 169 | 0.0 | 1.0 | 0.00 | 0.00 | 0.00 | 38 | 1006.6 |
| 20260503232849 | 51 | 190 | 1.0 | 1.0 | 0.00 | 0.00 | 0.00 | 36 | 1006.6 |
| 20260503232346 | 52 | 147 | 0.0 | 0.0 | 0.00 | 0.00 | 0.00 | 38 | 1006.4 |
| 20260503231845 | 52 | 180 | 1.0 | 1.0 | 0.00 | 0.00 | 0.00 | 36 | 1006.5 |
| 20260503231341 | 52 | 269 | 3.0 | 3.0 | 0.00 | 0.00 | 0.00 | 35 | 1006.5 |
| 20260503230838 | 52 | 179 | 1.0 | 1.0 | 0.00 | 0.00 | 0.00 | 36 | 1006.4 |
| 20260503230334 | 52 | 277 | 2.0 | 2.0 | 0.00 | 0.00 | 0.00 | 37 | 1006.4 |
| 20260503225833 | 53 | 199 | 2.0 | 2.0 | 0.00 | 0.00 | 0.00 | 37 | 1006.4 |
| 20260503225328 | 53 | 234 | 2.0 | 3.0 | 0.00 | 0.00 | 0.00 | 35 | 1006.3 |
| 20260503224824 | 53 | 232 | 2.0 | 2.0 | 0.00 | 0.00 | 0.00 | 36 | 1006.3 |
| 20260503224322 | 53 | 251 | 4.0 | 7.0 | 0.00 | 0.00 | 0.00 | 34 | 1006.4 |
| 20260503223820 | 53 | 255 | 3.0 | 3.0 | 0.00 | 0.00 | 0.00 | 32 | 1006.4 |
| 20260503223317 | 53 | 262 | 4.0 | 5.0 | 0.00 | 0.00 | 0.00 | 34 | 1006.5 |
| 20260503222812 | 53 | 173 | 1.0 | 2.0 | 0.00 | 0.00 | 0.00 | 34 | 1006.3 |
| 20260503222311 | 53 | 214 | 2.0 | 3.0 | 0.00 | 0.00 | 0.00 | 34 | 1006.4 |
| 20260503221809 | 53 | 244 | 5.0 | 7.0 | 0.00 | 0.00 | 0.00 | 33 | 1006.6 |
| 20260503221307 | 53 | 270 | 3.0 | 3.0 | 0.00 | 0.00 | 0.00 | 32 | 1006.5 |
| 20260503220803 | 53 | 269 | 5.0 | 6.0 | 0.00 | 0.00 | 0.00 | 33 | 1006.5 |
| 20260503220300 | 53 | 252 | 2.0 | 3.0 | 0.00 | 0.00 | 0.00 | 35 | 1006.5 |
| 20260503215756 | 53 | 262 | 2.0 | 3.0 | 0.00 | 0.00 | 0.00 | 35 | 1006.6 |
| 20260503215253 | 53 | 87 | 1.0 | 2.0 | 0.00 | 0.00 | 0.00 | 35 | 1006.6 |
| 20260503214752 | 53 | 189 | 2.0 | 3.0 | 0.00 | 0.00 | 0.00 | 32 | 1006.7 |
| 20260503214248 | 53 | 290 | 5.0 | 6.0 | 0.00 | 0.00 | 0.00 | 33 | 1006.6 |
| 20260503213746 | 53 | 238 | 2.0 | 2.0 | 0.00 | 0.00 | 0.00 | 34 | 1006.5 |
| 20260503213243 | 53 | 80 | 2.0 | 3.0 | 0.00 | 0.00 | 0.00 | 33 | 1006.6 |
| 20260503212740 | 53 | 295 | 2.0 | 3.0 | 0.00 | 0.00 | 0.00 | 35 | 1006.6 |
| 20260503212238 | 53 | 264 | 5.0 | 7.0 | 0.00 | 0.00 | 0.00 | 31 | 1006.6 |
| 20260503211735 | 53 | 91 | 2.0 | 2.0 | 0.00 | 0.00 | 0.00 | 35 | 1006.8 |
| 20260503211231 | 53 | 235 | 6.0 | 7.0 | 0.00 | 0.00 | 0.00 | 33 | 1006.7 |
| 20260503210727 | 53 | 262 | 5.0 | 7.0 | 0.00 | 0.00 | 0.00 | 34 | 1006.9 |
| 20260503210225 | 53 | 241 | 4.0 | 6.0 | 0.00 | 0.00 | 0.00 | 34 | 1006.7 |
| 20260503205720 | 53 | 89 | 1.0 | 1.0 | 0.00 | 0.00 | 0.00 | 34 | 1006.7 |
| 20260503205216 | 52 | 124 | 1.0 | 1.0 | 0.00 | 0.00 | 0.00 | 37 | 1006.6 |
| 20260503204713 | 52 | 248 | 2.0 | 2.0 | 0.00 | 0.00 | 0.00 | 35 | 1006.7 |
| 20260503204211 | 53 | 37 | 3.0 | 3.0 | 0.00 | 0.00 | 0.00 | 36 | 1006.9 |
| 20260503203707 | 52 | 293 | 2.0 | 2.0 | 0.00 | 0.00 | 0.00 | 35 | 1006.9 |
| 20260503203205 | 52 | 259 | 2.0 | 2.0 | 0.00 | 0.00 | 0.00 | 35 | 1006.8 |
| 20260503202702 | 52 | 180 | 1.0 | 2.0 | 0.00 | 0.00 | 0.00 | 37 | 1007.0 |
| 20260503202200 | 52 | 252 | 2.0 | 3.0 | 0.00 | 0.00 | 0.00 | 35 | 1006.9 |
| 20260503201658 | 52 | 224 | 3.0 | 3.0 | 0.00 | 0.00 | 0.00 | 37 | 1007.0 |
| 20260503201155 | 51 | 272 | 5.0 | 7.0 | 0.00 | 0.00 | 0.00 | 38 | 1006.9 |
| 20260503200651 | 51 | 258 | 1.0 | 2.0 | 0.00 | 0.00 | 0.00 | 38 | 1007.0 |
| 20260503200147 | 52 | 269 | 1.0 | 2.0 | 0.00 | 0.00 | 0.00 | 37 | 1006.9 |
| 20260503195644 | 52 | 229 | 1.0 | 1.0 | 0.00 | 0.00 | 0.00 | 38 | 1007.4 |
| 20260503195141 | 53 | 237 | 3.0 | 3.0 | 0.00 | 0.00 | 0.00 | 34 | 1007.3 |
| 20260503194638 | 54 | 338 | 3.0 | 3.0 | 0.00 | 0.00 | 0.00 | 37 | 1007.2 |
| 20260503194133 | 54 | 326 | 3.0 | 6.0 | 0.00 | 0.00 | 0.00 | 37 | 1007.0 |
| 20260503193631 | 53 | 237 | 4.0 | 6.0 | 0.00 | 0.00 | 0.00 | 36 | 1007.4 |
| 20260503193126 | 51 | 40 | 1.0 | 1.0 | 0.00 | 0.00 | 0.00 | 41 | 1007.5 |
| 20260503192616 | 52 | 253 | 7.0 | 8.0 | 0.00 | 0.00 | 0.00 | 38 | 1007.6 |
| 20260503192112 | 52 | 245 | 5.0 | 6.0 | 0.00 | 0.00 | 0.00 | 38 | 1007.6 |
| 20260503191609 | 53 | 352 | 3.0 | 5.0 | 0.00 | 0.00 | 0.00 | 42 | 1007.7 |
| 20260503191106 | 53 | 245 | 4.0 | 5.0 | 0.00 | 0.00 | 0.00 | 38 | 1007.7 |
| 20260503190603 | 53 | 321 | 2.0 | 2.0 | 0.00 | 0.00 | 0.00 | 38 | 1007.6 |
| 20260503190100 | 53 | 249 | 4.0 | 6.0 | 0.00 | 0.00 | 0.00 | 38 | 1007.7 |
| 20260503185556 | 51 | 222 | 3.0 | 5.0 | 0.00 | 0.00 | 0.00 | 41 | 1007.8 |
| 20260503185056 | 51 | 232 | 3.0 | 5.0 | 0.00 | 0.00 | 0.00 | 41 | 1007.9 |
| 20260503184552 | 52 | 352 | 4.0 | 5.0 | 0.00 | 0.00 | 0.00 | 40 | 1008.1 |
| 20260503184049 | 52 | 200 | 0.0 | 1.0 | 0.00 | 0.00 | 0.00 | 46 | 1007.9 |
| 20260503183545 | 52 | 236 | 3.0 | 3.0 | 0.00 | 0.00 | 0.00 | 39 | 1007.9 |
| 20260503183043 | 52 | 232 | 4.0 | 5.0 | 0.00 | 0.00 | 0.00 | 39 | 1007.8 |
| 20260503182541 | 52 | 253 | 2.0 | 2.0 | 0.00 | 0.00 | 0.00 | 38 | 1008.0 |
| 20260503182039 | 53 | 238 | 5.0 | 7.0 | 0.00 | 0.00 | 0.00 | 39 | 1008.1 |
| 20260503181536 | 51 | 200 | 2.0 | 3.0 | 0.00 | 0.00 | 0.00 | 42 | 1008.0 |
| 20260503181032 | 53 | 251 | 5.0 | 7.0 | 0.00 | 0.00 | 0.00 | 38 | 1008.2 |
| 20260503180529 | 52 | 184 | 7.0 | 10.0 | 0.00 | 0.00 | 0.00 | 43 | 1008.1 |
| 20260503180027 | 51 | 201 | 1.0 | 2.0 | 0.00 | 0.00 | 0.00 | 44 | 1008.3 |
| 20260503175524 | 52 | 334 | 4.0 | 5.0 | 0.00 | 0.00 | 0.00 | 43 | 1008.1 |
| 20260503175020 | 52 | 35 | 2.0 | 2.0 | 0.00 | 0.00 | 0.00 | 43 | 1008.3 |
| 20260503174518 | 51 | 302 | 3.0 | 3.0 | 0.00 | 0.00 | 0.00 | 43 | 1008.2 |
| 20260503174014 | 51 | 5 | 3.0 | 3.0 | 0.00 | 0.00 | 0.00 | 43 | 1008.6 |
| 20260503173509 | 50 | 21 | 3.0 | 3.0 | 0.00 | 0.00 | 0.00 | 44 | 1008.6 |
| 20260503173006 | 50 | 299 | 5.0 | 8.0 | 0.00 | 0.00 | 0.00 | 41 | 1008.4 |
| 20260503172504 | 50 | 267 | 4.0 | 5.0 | 0.00 | 0.00 | 0.00 | 43 | 1008.6 |
| 20260503172001 | 50 | 230 | 4.0 | 6.0 | 0.00 | 0.00 | 0.00 | 43 | 1008.4 |
| 20260503171457 | 50 | 143 | 1.0 | 1.0 | 0.00 | 0.00 | 0.00 | 46 | 1008.8 |
| 20260503170954 | 51 | 290 | 3.0 | 3.0 | 0.00 | 0.00 | 0.00 | 44 | 1008.5 |
| 20260503170450 | 51 | 37 | 2.0 | 2.0 | 0.00 | 0.00 | 0.00 | 43 | 1008.4 |
| 20260503150843 | 50 | 78 | 2.0 | 3.0 | 0.00 | 0.00 | 0.00 | 40 | 1009.8 |
| 20260503150339 | 51 | 290 | 3.0 | 5.0 | 0.00 | 0.00 | 0.00 | 40 | 1009.8 |
| 20260503140303 | 48 | 103 | 0.0 | 1.0 | 0.00 | 0.00 | 0.00 | 47 | 1010.6 |
| 20260503131233 | 46 | 79 | 2.0 | 3.0 | 0.00 | 0.00 | 0.00 | 50 | 1010.8 |
| 20260503130730 | 45 | 94 | 2.0 | 3.0 | 0.00 | 0.00 | 0.00 | 53 | 1011.2 |
| 20260503130227 | 45 | 77 | 1.0 | 2.0 | 0.00 | 0.00 | 0.00 | 54 | 1011.2 |
| 20260503120153 | 44 | 82 | 1.0 | 3.0 | 0.00 | 0.00 | 0.00 | 71 | 1011.2 |
| 20260503110621 | 39 | 110 | 0.0 | 1.0 | 0.00 | 0.00 | 0.00 | 85 | 1011.1 |
| 20260503110118 | 38 | 128 | 0.0 | 0.0 | 0.00 | 0.00 | 0.00 | 86 | 1011.1 |
| 20260503090508 | 37 | 68 | 1.0 | 1.0 | 0.00 | 0.00 | 0.00 | 88 | 1010.5 |